This demonstration page uses our WeatherBlox Daily Observations layout. Learn more.

41.55636, -103.73856

Hourly Observations for January 29, 2020

Temp ( °F °C ) Dew Point ( °F °C ) Humidity (%) Winds ( mph kmh ) Pressure ( in mb ) Visibility ( mi km ) Precip ( " mm )
12:58 am 00:58 Clear 31 -0.4 16 -8.9 53 53 SSW 6 9 30.13 1020 10 16.0934 0 0
1:58 am 01:58 Clear 31 -0.3 18 -7.7 58 58 W 3 6 30.15 1021 10 16.0934 0 0
2:58 am 02:58 Clear 29 -1.7 20 -6.8 69 69 WSW 6 9 30.15 1021 10 16.0934 0 0
3:58 am 03:58 Clear 27 -2.9 19 -7 74 74 WSW 6 9 30.13 1020 10 16.0934 0 0
4:58 am 04:58 Clear 28 -2.5 20 -6.8 73 73 WSW 3 6 30.11 1020 10 16.0934 0 0
5:58 am 05:58 Partly Cloudy 26 -3.2 20 -6.7 77 77 Calm 30.1 1019 10 16.0934 0 0
6:58 am 06:58 Mostly Clear 25 -4 19 -7.1 79 79 SSW 5 7 30.08 1019 10 16.0934 0 0
7:58 am 07:58 Mostly Cloudy 29 -1.4 21 -6.2 70 70 WSW 5 7 30.07 1018 10 16.0934 0 0
8:58 am 08:58 Partly Cloudy 28 -2.5 21 -6.1 77 77 WSW 3 6 30.08 1019 10 16.0934 0 0
9:58 am 09:58 Partly Cloudy 28 -2.4 21 -6.2 75 75 W 3 6 30.08 1019 10 16.0934 0 0
10:58 am 10:58 Mostly Cloudy 28 -2 21 -6.1 74 74 Calm 30.07 1018 10 16.0934 0 0
11:58 am 11:58 Partly Cloudy 31 -0.7 22 -5.5 70 70 W 5 7 30.1 1019 10 16.0934 0 0
12:58 pm 12:58 Mostly Cloudy 29 -1.7 22 -5.8 74 74 NW 7 11 30.14 1021 10 16.0934 0 0
1:58 pm 13:58 Cloudy 29 -1.6 24 -4.4 81 81 WSW 6 9 30.16 1021 10 16.0934 0 0
2:58 pm 14:58 Cloudy with Light Snow 31 -0.5 27 -2.8 85 85 Calm 30.16 1022 9 14.48406 0 0
3:58 pm 15:58 Cloudy with Light Snow 32 0.2 31 -0.4 96 96 WNW 6 9 30.18 1022 4 6.43736 0 0
4:58 pm 16:58 Cloudy with Light Snow 33 0.4 32 0 97 97 WNW 7 11 30.19 1022 2.75 4.425685 0.01 0.254
5:58 pm 17:58 Mostly Cloudy with Light Rain/Snow 34 0.9 33 0.4 97 97 NW 8 13 30.19 1022 10 16.0934 0 0
6:58 pm 18:58 Mostly Cloudy with Scattered Snow Showers 35 1.4 34 0.9 97 97 NW 9 15 30.18 1022 7 11.26538 0 0
7:58 pm 19:58 Mostly Cloudy with Light Rain 35 1.7 34 1 95 95 NW 12 19 30.14 1021 10 16.0934 0.01 0.254
8:58 pm 20:58 Mostly Cloudy with Light Rain 35 1.7 34 1 95 95 NW 9 15 30.12 1020 10 16.0934 0 0
9:58 pm 21:58 Cloudy with Light Showers 36 2.1 33 0.8 91 91 NNW 14 22 30.12 1020 10 16.0934 0 0
10:58 pm 22:58 Mostly Cloudy 36 2 34 1 93 93 NNW 9 15 30.12 1020 10 16.0934 0 0
11:58 pm 23:58 Cloudy with Light Drizzle 34 1.2 33 0.5 95 95 NW 6 9 30.13 1020 10 16.0934 0 0

Powered by AerisWeather